#timestamp,LO_Frequency,Hit,StdDev 
1585580415.2,286046998.6,N
1585580435.1,286046998.7,N
1585580436.0,286046998.7,N
1585580455.8,286047001.1,N
1585580475.7,286047000.7,N
1585580495.5,286046999.9,N
1585580515.3,286046998.3,N
1585580535.2,286046999.0,N
1585580555.0,286046998.4,N
1585580555.9,286046998.4,N
1585580575.8,286046998.5,N
1585580595.6,286046999.2,N
1585580615.4,286046999.0,N
1585580635.3,286046998.8,N
1585580655.1,286046999.0,N
1585580675.8,286046999.0,N
1585580695.7,286047002.8,N
1585580715.5,286047000.0,N
1585580735.4,286047001.2,N
1585580755.2,286046998.2,N
1585580775.0,286046998.9,N
1585580775.9,286046998.9,N
1585580795.8,286046998.2,N
1585580815.6,286046998.3,N
1585580835.5,286047001.2,N
1585580855.3,286047001.0,N
1585580875.1,286047000.8,N
1585580895.9,286046998.3,N
1585580915.7,286046996.6,N
1585580935.5,286046999.3,N
1585580955.4,286046998.5,N
1585580975.2,286047001.2,N
1585580995.1,286047000.7,N
1585580996.0,286047000.7,N
1585581015.8,286046998.2,N
1585581035.6,286046998.8,N
1585581055.5,286047001.2,N
1585581075.3,286046998.7,N
1585581095.2,286046997.0,N
1585581115.9,286046997.8,N
1585581135.7,286046999.4,N
1585581155.6,286046998.7,N
1585581175.4,286047000.9,N
1585581195.2,286047000.4,N
1585581215.1,286047001.2,N
1585581216.0,286047001.2,N
1585581235.8,286046998.4,N
1585581255.7,286046998.6,N
1585581275.5,286046998.9,N
1585581295.3,286047002.7,N
1585581315.2,286046998.7,N
1585581335.0,286047001.2,N
1585581335.9,286047001.2,N
1585581355.8,286046999.3,N
1585581375.6,286047001.1,N
1585581395.4,286046999.8,N
1585581415.3,286047001.1,N
1585581435.1,286046998.6,N
1585581455.9,286047000.6,N
1585581475.7,286047000.4,N
1585581495.5,286047001.1,N
1585581515.4,286046998.9,N
1585581535.2,286046998.2,N
1585581555.0,286046999.0,N
1585581555.9,286046999.0,N
1585581575.8,286047000.1,N
1585581595.6,286046999.8,N
1585581615.5,286047000.5,N
1585581635.3,286047000.3,N
1585581655.1,286047000.8,N
1585581675.9,286046999.5,N
1585581695.7,286046996.6,Y
1585581715.6,286046996.7,P
1585581735.4,286046997.8,N
1585581755.2,286046995.5,P
1585581775.1,286046997.5,N
1585581776.0,286046997.5,N
1585581795.8,286046996.8,N
1585581815.6,286046998.9,N
1585581835.5,286047001.2,N
1585581855.3,286046999.2,N
1585581875.2,286046998.1,N
1585581895.9,286046998.5,N
1585581915.7,286047001.2,N
1585581935.6,286046998.1,N
1585581955.4,286046999.7,N
1585581975.3,286047011.9,Y
1585581995.1,286047003.7,P
1585581996.0,286047003.7,N
1585582015.8,286047003.2,N
1585582035.7,286047003.2,N
1585582055.5,286047003.8,N
1585582075.3,286047004.3,N
1585582095.2,286047001.6,N
1585582115.0,286047001.5,N
1585582115.9,286047001.5,N
1585582135.8,286047001.5,N
1585582155.6,286047002.3,N
1585582175.4,286047002.2,N
1585582195.3,286047002.8,N
1585582215.1,286047000.4,N
1585582235.8,286046999.1,N
1585582255.7,286047000.8,N
1585582275.5,286046996.5,N
1585582295.4,286046997.5,N
1585582315.2,286046993.7,N
1585582335.0,286046996.3,N
1585582335.9,286046996.3,N
1585582355.8,286046996.4,N
1585582375.6,286046996.1,N
1585582395.5,286046995.6,N
1585582415.3,286046995.3,N
1585582435.1,286046995.8,N
1585582455.9,286046993.5,N
1585582475.7,286046992.2,N
1585582495.5,286046992.3,N
1585582515.4,286046992.9,N
1585582535.2,286046990.9,N
1585582555.1,286046990.3,N
1585582556.0,286046990.3,N
1585582575.8,286046990.6,N
1585582595.6,286046990.8,N
1585582615.5,286046992.8,N
1585582635.3,286046994.6,N
1585582655.1,286046994.4,N
1585582675.9,286046994.0,N
1585582695.7,286046994.3,N
1585582715.6,286046992.6,N
1585582735.4,286046992.6,N
1585582755.2,286046990.2,Y
1585582775.1,286046996.8,P
1585582776.0,286046996.8,P
1585582795.9,286046997.3,N
1585582815.7,286046998.0,N
1585582835.5,286046995.1,Y
1585582855.4,286046998.1,P
1585582875.2,286047000.2,N
1585582895.1,286047002.7,N
1585582896.0,286047002.7,N
1585582915.8,286047004.2,N
1585582935.6,286047002.6,N
1585582955.5,286047002.1,N
1585582975.3,286047004.1,N
1585582995.1,286047005.9,N
1585583015.9,286047003.3,N
1585583035.8,286047005.2,N
1585583055.6,286047003.4,N
1585583075.4,286047003.8,N
1585583095.3,286047003.6,N
1585583115.1,286047006.0,N
1585583135.8,286047005.7,N
1585583155.7,286047002.9,N
1585583175.5,286047007.6,Y
1585583195.4,286047004.1,P
1585583215.2,286047001.7,N
1585583235.0,286047002.4,N
1585583235.9,286047002.4,N
1585583255.8,286047002.8,Y
1585583275.6,286046999.5,P
1585583295.5,286046996.5,N
1585583315.3,286046997.2,N
1585583335.1,286046998.8,N
1585583355.9,286047001.2,N
1585583375.7,286046999.6,N
1585583395.6,286046999.6,N
1585583415.4,286046997.2,N
1585583435.2,286046998.7,N
1585583455.1,286046998.7,N
1585583456.0,286046998.7,N
1585583475.8,286046998.7,N
1585583495.6,286046999.2,N
1585583515.5,286046998.5,N
1585583535.3,286046998.4,N
1585583555.2,286046998.3,N
1585583575.9,286046998.2,N
1585583595.7,286046998.3,N
1585583615.6,286046998.8,N
1585583635.4,286046999.3,N
1585583655.2,286047000.8,N
1585583675.1,286047000.8,N
1585583676.0,286047000.8,N
1585583695.8,286047001.2,N
1585583715.7,286047000.1,N
1585583735.5,286047000.0,N
1585583755.3,286047002.7,N
1585583775.2,286047002.4,N
1585583795.0,286047000.7,N
1585583795.9,286047000.7,N
1585583815.8,286047000.5,N
1585583835.6,286047000.4,N
1585583855.4,286046998.6,N
1585583875.3,286047000.0,N
1585583895.1,286047002.0,N
1585583915.8,286047000.1,N
1585583935.8,286047002.2,N
1585583955.6,286047001.5,N
1585583975.5,286047001.6,N
1585583995.3,286047000.1,N
